KZ-1A R/B (49502 NORAD) Tracking and Keplerian Element Data

This shows tracking and keplerian element data for the satellite.

Feedback or suggestion? Click here.




ElementValue
Catalog49502
NameKZ-1A R/B
Epoch Orbit393
Epoch Day354.27292891
Epoch Year2021
RAAN1.4972
Inclination97.497
Eccentricity0.0179106
Argument of Perigee245.9832
Mean Anonmoly112.2614
Mean Motion16.08501409
Decay Rate0.04448965
L11 49502U 21112B 21354.27292891 .04448965 24035-5 18843-3 0 9998
L22 49502 97.4970 1.4972 0179106 245.9832 112.2614 16.08501409 3934

Live tracking and technical data element details for KZ-1A R/B (NORAD 49502). KZ-1A R/B can be tracked NOW for your location showing map with azimuth and elevation plus other details from your city location.

Track the satellite on the map from your city or location and see movement details for azimuth, elevation, latitude, longitude, range, height, and movement on the map or in text.







IsCatalogInMostPopularTable: catalog: 49502, numindb: 3
Update: records affected: 1



GetName: 49502 KZ-1A R/B

Hit Count: updated at: Thu, 20 Jan 2022 17:38:27 GMT